Temp
-10 -10 -10 -10 -10 -10 -10 -10 -9 -9 -9 -9 -9 -8 -8 -9 -9 -9 -9 -9 -9 -9 -9 -9 -9 -9 -9 -10 -10 -10 -10 -10 -10 -10 -10 -10 -10 -10 -10 -10 -10 -10 -10
-10 -10 -10 -10 -10 -10 -9 -9 -8 -9 -9 -9 -8 -8 -9 -9 -9 -9 -9 -9 -9 -9 -9 -9 -9 -9 -9 -10 -10 -10 -10 -10 -10 -10 -10 -10 -10 -10 -10 -10 -10 -11 -11
-10 -10 -10 -10 -9 -9 -8 -8 -8 -8 -8 -9 -9 -9 -9 -9 -9 -9 -9 -9 -10 -10 -10 -10 -10 -10 -10 -10 -10 -10 -10 -10 -10 -10 -10 -11 -11 -11 -11 -11 -11 -11 -11
-10 -10 -10 -9 -9 -8 -8 -8 -8 -8 -8 -9 -9 -9 -9 -9 -9 -10 -10 -10 -10 -10 -10 -10 -10 -10 -10 -10 -10 -10 -10 -10 -10 -10 -10 -10 -11 -11 -11 -11 -11 -11 -11
-10 -9 -9 -9 -8 -8 -8 -8 -8 -8 -8 -9 -9 -9 -9 -9 -9 -10 -10 -10 -10 -10 -10 -10 -10 -10 -10 -10 -10 -10 -10 -10 -10 -10 -11 -11 -11 -11 -11 -11 -11 -12 -11
-9 -9 -8 -8 -8 -8 -8 -8 -8 -8 -8 -9 -9 -9 -9 -9 -10 -10 -10 -10 -10 -10 -10 -10 -10 -10 -10 -10 -10 -10 -10 -10 -10 -10 -11 -11 -11 -11 -12 -12 -12 -12 -12
-9 -8 -8 -8 -8 -8 -8 -8 -8 -8 -9 -9 -9 -9 -9 -10 -10 -10 -10 -10 -10 -10 -10 -10 -10 -10 -10 -10 -11 -11 -10 -10 -10 -11 -11 -11 -11 -11 -12 -12 -13 -13 -13
-8 -8 -8 -8 -8 -8 -8 -8 -8 -9 -9 -9 -9 -9 -9 -10 -10 -9 -9 -10 -10 -10 -10 -10 -10 -10 -10 -11 -10 -10 -11 -11 -10 -11 -11 -12 -11 -12 -12 -12 -13 -13 -13
-8 -8 -8 -8 -8 -8 -8 -8 -9 -9 -9 -9 -9 -9 -9 -9 -9 -9 -9 -9 -10 -10 -10 -10 -10 -10 -10 -10 -11 -11 -11 -11 -11 -11 -11 -12 -11 -12 -12 -13 -14 -13 -14
-8 -8 -8 -8 -8 -8 -8 -8 -9 -9 -9 -9 -9 -9 -9 -9 -9 -9 -9 -9 -10 -10 -9 -9 -10 -10 -10 -10 -11 -11 -11 -11 -11 -11 -11 -12 -12 -12 -12 -13 -14 -14 -14
-8 -8 -8 -8 -8 -8 -8 -8 -9 -9 -9 -9 -9 -9 -9 -9 -9 -9 -9 -10 -9 -10 -9 -10 -10 -10 -11 -11 -11 -11 -11 -12 -11 -11 -11 -12 -12 -12 -12 -13 -14 -15 -15
-8 -8 -8 -8 -8 -8 -8 -8 -9 -9 -9 -9 -9 -9 -9 -9 -9 -9 -9 -9 -10 -9 -9 -10 -10 -10 -11 -11 -11 -11 -11 -11 -12 -12 -12 -12 -12 -12 -13 -12 -14 -15 -15
-8 -8 -8 -8 -8 -8 -9 -9 -9 -9 -9 -9 -9 -9 -9 -9 -9 -9 -10 -10 -10 -10 -10 -10 -10 -10 -10 -10 -10 -11 -12 -12 -12 -12 -12 -12 -12 -12 -13 -14 -13 -14 -14
-8 -8 -8 -8 -8 -9 -9 -8 -9 -9 -9 -9 -9 -9 -9 -9 -9 -10 -10 -10 -10 -10 -10 -10 -10 -11 -11 -11 -11 -11 -11 -12 -12 -12 -12 -12 -13 -13 -13 -13 -13 -14 -14
-8 -8 -8 -8 -8 -8 -9 -9 -9 -9 -9 -9 -9 -9 -9 -9 -9 -9 -9 -10 -10 -11 -11 -11 -11 -11 -11 -11 -12 -12 -12 -12 -12 -12 -12 -13 -13 -13 -13 -13 -13 -13 -14
-8 -8 -8 -8 -8 -9 -9 -9 -9 -9 -9 -9 -9 -9 -9 -10 -10 -10 -10 -10 -11 -11 -11 -11 -11 -11 -11 -12 -12 -12 -12 -13 -13 -13 -13 -13 -13 -13 -13 -13 -13 -13 -14
-8 -8 -8 -8 -9 -9 -9 -9 -9 -9 -9 -9 -9 -10 -10 -9 -10 -10 -10 -10 -10 -10 -11 -11 -12 -12 -12 -12 -12 -13 -12 -13 -13 -13 -13 -13 -14 -14 -14 -14 -13 -14 -14
-9 -8 -9 -8 -9 -9 -9 -9 -9 -9 -9 -9 -10 -10 -10 -10 -10 -10 -10 -10 -11 -11 -11 -12 -12 -12 -12 -13 -13 -13 -13 -13 -13 -14 -14 -14 -14 -14 -14 -14 -14 -14 -14
-9 -9 -9 -9 -9 -9 -9 -9 -9 -9 -9 -10 -10 -10 -10 -10 -10 -10 -10 -10 -11 -11 -11 -11 -11 -12 -12 -12 -13 -13 -14 -14 -14 -14 -14 -14 -14 -14 -15 -14 -14 -14 -14
-9 -9 -9 -9 -9 -9 -9 -9 -9 -9 -9 -10 -10 -10 -10 -10 -10 -11 -11 -11 -11 -11 -11 -11 -12 -13 -13 -13 -13 -13 -14 -14 -14 -15 -15 -15 -15 -15 -15 -15 -15 -15 -15
-10 -9 -9 -9 -9 -9 -9 -9 -9 -10 -10 -10 -10 -10 -10 -11 -11 -11 -11 -11 -11 -12 -11 -12 -12 -13 -13 -13 -13 -13 -14 -14 -14 -14 -15 -16 -15 -16 -15 -15 -15 -15 -15
-10 -9 -9 -9 -9 -10 -9 -10 -10 -10 -10 -10 -10 -10 -11 -11 -11 -11 -11 -11 -11 -12 -12 -12 -13 -13 -13 -14 -14 -14 -13 -14 -14 -15 -16 -16 -16 -16 -16 -16 -16 -16 -16
-9 -9 -9 -9 -9 -10 -10 -10 -10 -9 -10 -10 -10 -10 -10 -11 -11 -11 -12 -12 -12 -12 -13 -13 -13 -14 -14 -14 -14 -15 -14 -14 -14 -15 -15 -16 -16 -16 -16 -16 -16 -16 -16
-10 -10 -10 -10 -9 -9 -10 -10 -10 -9 -10 -10 -10 -10 -11 -11 -11 -12 -12 -12 -13 -13 -13 -14 -14 -14 -15 -15 -15 -16 -16 -15 -15 -15 -16 -15 -15 -16 -16 -16 -16 -17 -17
-10 -10 -10 -9 -9 -8 -9 -9 -9 -9 -10 -10 -10 -11 -11 -11 -12 -12 -12 -13 -13 -14 -14 -15 -14 -14 -15 -15 -16 -16 -16 -16 -17 -16 -15 -16 -16 -16 -16 -17 -17 -17 -17
-9 -9 -9 -9 -9 -9 -9 -9 -10 -10 -10 -10 -10 -11 -11 -11 -12 -12 -13 -13 -13 -14 -15 -14 -15 -15 -15 -16 -16 -16 -17 -17 -16 -16 -16 -17 -17 -17 -17 -17 -18 -18 -18
Height
5866 5868 5871 5871 5872 5872 5872 5872 5871 5871 5871 5871 5872 5872 5871 5870 5869 5869 5869 5869 5868 5868 5867 5867 5866 5865 5864 5864 5863 5862 5862 5861 5860 5859 5856 5855 5854 5853 5852 5850 5848 5847 5845
5865 5868 5870 5870 5871 5871 5871 5872 5872 5872 5872 5873 5873 5872 5872 5871 5870 5870 5869 5869 5869 5868 5868 5867 5866 5866 5865 5864 5863 5862 5861 5860 5859 5857 5855 5855 5853 5852 5851 5850 5848 5847 5845
5865 5868 5868 5868 5869 5870 5871 5871 5872 5873 5873 5873 5874 5873 5872 5872 5871 5871 5869 5869 5869 5868 5866 5866 5865 5865 5864 5863 5862 5861 5860 5859 5857 5856 5855 5853 5852 5850 5848 5848 5846 5845 5843
5864 5866 5867 5868 5869 5871 5872 5873 5874 5874 5874 5874 5874 5873 5873 5872 5871 5870 5869 5868 5868 5867 5866 5865 5864 5864 5862 5861 5860 5859 5858 5857 5856 5855 5854 5851 5849 5847 5846 5845 5844 5843 5841
5864 5866 5866 5868 5871 5873 5874 5874 5875 5874 5874 5874 5874 5873 5873 5871 5870 5870 5869 5868 5867 5867 5866 5865 5863 5862 5860 5858 5857 5856 5855 5855 5854 5852 5851 5849 5847 5846 5844 5842 5841 5841 5839
5864 5865 5867 5870 5872 5873 5874 5875 5875 5874 5874 5874 5874 5874 5872 5871 5870 5869 5868 5868 5867 5865 5864 5863 5861 5861 5859 5857 5856 5855 5853 5852 5850 5849 5847 5846 5844 5842 5840 5838 5837 5836 5836
5863 5866 5869 5870 5872 5873 5874 5874 5874 5874 5874 5874 5874 5873 5872 5871 5870 5869 5867 5866 5864 5863 5861 5860 5859 5858 5857 5856 5855 5852 5851 5850 5848 5847 5844 5842 5840 5838 5837 5835 5833 5832 5832
5865 5867 5869 5871 5872 5872 5873 5873 5873 5873 5873 5873 5872 5871 5870 5869 5868 5867 5865 5863 5862 5861 5860 5859 5857 5856 5855 5853 5851 5849 5847 5845 5844 5844 5843 5839 5836 5834 5832 5830 5830 5827 5827
5866 5868 5869 5871 5871 5871 5872 5872 5872 5872 5872 5871 5870 5869 5868 5867 5866 5864 5863 5861 5859 5859 5858 5857 5856 5854 5852 5851 5849 5846 5844 5841 5839 5838 5838 5835 5832 5830 5827 5824 5824 5823 5822
5867 5868 5869 5869 5869 5870 5870 5871 5871 5871 5870 5869 5868 5867 5866 5865 5864 5862 5861 5859 5858 5857 5856 5855 5853 5852 5850 5848 5847 5844 5841 5838 5834 5831 5831 5829 5825 5823 5822 5819 5819 5818 5816
5866 5866 5867 5867 5868 5868 5869 5869 5869 5868 5868 5866 5865 5864 5863 5862 5862 5860 5859 5857 5856 5854 5853 5852 5850 5849 5847 5844 5841 5839 5837 5834 5832 5828 5824 5821 5819 5816 5815 5814 5812 5812 5810
5864 5865 5865 5866 5866 5867 5867 5867 5866 5866 5864 5863 5862 5861 5861 5859 5858 5857 5854 5853 5852 5851 5850 5849 5847 5844 5841 5838 5836 5833 5829 5826 5822 5818 5817 5814 5813 5811 5809 5806 5805 5805 5804
5861 5862 5863 5864 5864 5865 5864 5864 5863 5863 5862 5861 5859 5858 5857 5856 5855 5853 5850 5851 5850 5848 5846 5844 5841 5839 5837 5834 5833 5830 5827 5823 5820 5817 5815 5811 5807 5804 5802 5800 5797 5796 5796
5859 5859 5860 5862 5862 5862 5860 5861 5860 5860 5859 5858 5856 5855 5853 5852 5851 5850 5849 5847 5845 5843 5841 5839 5838 5835 5833 5829 5824 5820 5817 5815 5813 5809 5805 5805 5800 5798 5796 5793 5791 5790 5789
5856 5857 5858 5858 5859 5859 5858 5858 5857 5857 5856 5855 5853 5851 5849 5848 5847 5845 5843 5842 5842 5839 5836 5834 5831 5829 5826 5822 5819 5814 5809 5807 5804 5801 5798 5797 5795 5791 5790 5788 5785 5784 5783
5852 5854 5855 5855 5855 5854 5854 5854 5853 5852 5851 5850 5849 5847 5846 5845 5842 5841 5838 5837 5836 5834 5830 5829 5827 5824 5821 5817 5813 5811 5807 5802 5798 5794 5790 5787 5785 5784 5783 5780 5777 5777 5776
5849 5849 5850 5852 5850 5849 5849 5848 5848 5848 5847 5846 5845 5843 5842 5839 5837 5835 5832 5831 5830 5826 5824 5822 5819 5815 5812 5808 5805 5801 5798 5794 5790 5784 5781 5779 5778 5776 5774 5773 5771 5768 5766
5845 5845 5845 5846 5845 5845 5845 5844 5844 5843 5842 5841 5839 5838 5837 5834 5832 5829 5827 5824 5821 5817 5817 5814 5811 5806 5803 5798 5795 5791 5789 5785 5781 5778 5774 5769 5767 5764 5764 5762 5762 5760 5755
5838 5838 5841 5840 5841 5840 5841 5840 5840 5840 5837 5836 5834 5833 5833 5829 5826 5822 5818 5817 5816 5813 5810 5805 5801 5797 5794 5790 5788 5784 5780 5775 5772 5768 5765 5761 5759 5759 5754 5751 5750 5750 5749
5831 5834 5835 5835 5835 5836 5836 5836 5836 5834 5833 5831 5828 5825 5824 5820 5817 5814 5812 5808 5807 5804 5799 5794 5792 5788 5785 5779 5776 5774 5769 5767 5762 5757 5754 5750 5748 5746 5743 5741 5741 5739 5737
5827 5828 5831 5832 5831 5831 5831 5831 5829 5827 5826 5825 5823 5820 5815 5813 5811 5808 5804 5801 5798 5793 5788 5785 5782 5778 5774 5770 5766 5763 5760 5754 5747 5744 5742 5738 5736 5735 5733 5731 5729 5728 5728
5825 5824 5825 5827 5829 5827 5826 5824 5822 5820 5820 5818 5815 5812 5808 5806 5804 5801 5797 5793 5790 5783 5781 5776 5771 5768 5764 5759 5755 5751 5746 5742 5736 5732 5729 5726 5723 5722 5719 5717 5716 5714 5712
5822 5821 5819 5818 5821 5824 5820 5815 5814 5814 5812 5811 5808 5806 5802 5799 5796 5793 5789 5784 5779 5774 5768 5766 5761 5758 5753 5748 5740 5734 5730 5728 5725 5722 5719 5714 5710 5707 5705 5703 5700 5700 5699
5816 5815 5814 5812 5809 5815 5816 5811 5806 5806 5805 5804 5800 5796 5793 5790 5787 5783 5778 5773 5766 5764 5761 5757 5752 5746 5741 5734 5727 5720 5715 5711 5710 5711 5705 5703 5700 5696 5692 5689 5688 5685 5683
5812 5812 5809 5807 5802 5804 5808 5806 5803 5799 5796 5794 5792 5789 5787 5783 5778 5774 5768 5762 5758 5754 5749 5745 5739 5734 5727 5722 5715 5708 5702 5698 5693 5690 5692 5689 5684 5684 5681 5673 5671 5669 5666
5804 5805 5803 5801 5798 5799 5796 5795 5793 5791 5787 5783 5781 5778 5775 5773 5769 5764 5757 5752 5748 5742 5737 5732 5726 5722 5714 5708 5702 5697 5691 5684 5679 5673 5668 5666 5665 5662 5661 5659 5655 5652 5651
Wind_Speed
5 5 4 6 4 2 3 5 6 8 6 7 9 10 11 11 11 11 10 9 10 10 10 11 12 12 13 13 14 15 16 17 17 18 19 20 20 20 20 20 21 20 18
6 7 5 8 6 5 7 10 11 7 7 8 8 8 9 10 10 11 12 12 11 11 12 13 14 14 15 16 17 18 20 21 22 23 23 23 23 23 23 24 25 24 23
8 8 7 10 11 12 14 13 10 8 7 6 7 8 8 8 9 9 11 10 11 12 13 13 13 15 16 18 20 21 22 22 23 24 25 26 26 26 26 27 27 26 25
8 8 9 11 13 15 13 10 9 7 7 6 6 6 7 7 9 10 10 11 12 13 14 15 17 19 20 21 22 24 24 25 26 26 26 28 29 28 28 27 27 28 28
11 12 14 15 16 13 10 8 6 5 5 5 5 6 7 8 10 11 12 12 12 12 13 15 16 18 20 23 24 24 26 27 28 29 29 28 28 29 29 29 29 26 26
13 15 17 16 14 10 7 5 3 1 3 4 5 6 7 9 10 10 10 11 11 13 14 16 18 20 21 23 24 26 28 30 30 30 30 31 30 31 30 29 27 26 24
15 19 18 15 11 9 7 4 1 3 4 4 6 8 10 9 9 10 11 12 13 15 16 19 21 22 23 24 26 27 29 31 33 33 33 32 32 34 34 32 30 26 24
19 19 16 13 11 10 7 4 4 5 5 7 9 9 11 11 10 12 13 14 16 18 20 21 23 24 25 26 26 28 31 34 35 33 31 32 33 33 35 35 32 28 25
17 15 13 12 11 8 6 5 6 6 8 9 11 12 12 13 12 14 16 17 19 19 21 24 26 27 27 28 29 30 33 35 38 37 32 33 32 33 35 37 34 32 28
12 10 11 11 10 8 7 8 7 7 10 11 13 13 14 14 14 15 16 18 19 19 22 25 27 28 29 31 33 34 36 37 34 34 34 34 35 31 33 35 36 33 32
11 12 11 10 8 8 9 8 9 11 12 12 14 15 16 16 15 17 18 19 19 19 22 25 27 27 28 29 31 34 35 35 36 38 34 33 33 33 32 37 37 30 30
14 14 11 10 8 8 10 12 12 14 12 14 15 16 16 16 16 19 21 20 20 19 22 25 26 29 30 33 34 35 37 38 37 38 35 34 36 35 36 34 39 35 32
16 14 13 10 8 9 11 12 13 14 15 15 15 14 17 17 19 21 24 24 24 23 24 27 29 32 35 35 36 40 39 39 40 41 39 37 36 35 38 39 39 38 36
16 15 13 12 11 13 15 12 14 13 16 15 15 19 20 21 23 23 24 24 24 25 26 29 30 34 36 38 42 44 45 45 43 41 40 38 38 38 37 39 39 40 39
18 17 16 17 18 18 16 14 14 14 15 17 19 21 24 26 27 27 28 27 26 27 30 32 34 35 38 42 44 45 45 45 45 42 41 40 40 37 35 34 38 40 41
21 19 19 20 22 22 18 15 16 16 20 21 23 25 26 28 28 29 30 30 31 32 33 36 38 41 43 44 44 46 45 43 43 42 42 41 39 36 33 33 32 34 40
22 21 20 19 22 22 20 18 18 21 23 24 26 28 29 29 29 30 31 30 31 34 36 38 40 43 46 49 46 46 47 46 41 41 42 41 38 34 35 38 36 36 39
24 22 22 21 21 20 19 20 21 23 24 28 30 30 31 32 32 36 34 34 34 38 38 41 43 47 51 51 50 48 46 43 41 40 42 41 39 34 36 37 38 35 36
26 26 22 22 18 19 20 21 23 24 29 31 33 33 32 35 36 39 39 38 39 43 44 46 47 50 54 55 53 52 47 41 40 39 38 40 40 41 39 39 38 40 40
28 25 22 21 19 21 21 23 25 29 32 32 34 36 36 38 40 41 43 43 43 45 46 48 50 53 56 56 54 56 52 46 44 41 39 37 39 41 40 37 37 38 39
26 22 19 20 23 23 24 25 31 34 34 34 36 38 41 42 42 45 47 45 47 49 50 52 55 57 59 57 58 60 56 53 51 52 47 39 37 38 40 39 40 40 43
24 24 23 23 21 25 27 30 34 37 36 38 40 42 44 45 46 47 48 48 50 53 54 56 58 59 60 57 61 61 59 56 55 52 48 43 41 41 40 41 41 41 42
25 28 29 30 24 23 29 36 39 38 38 40 42 44 47 49 49 49 48 51 54 54 58 57 61 62 60 59 61 60 61 58 57 52 45 43 42 44 43 42 41 42 43
29 31 32 33 32 24 29 35 42 41 43 44 44 46 47 49 49 49 52 55 57 58 60 60 62 61 58 59 60 59 59 60 57 48 44 48 48 45 44 46 45 43 44
32 31 33 34 37 32 31 37 39 44 47 46 46 46 47 49 50 53 56 56 59 59 61 61 62 60 61 60 62 59 61 60 54 53 51 53 54 54 53 47 45 47 49
31 32 34 36 39 37 40 40 40 41 43 45 46 47 48 50 51 56 56 59 60 60 62 61 61 61 62 62 59 60 60 56 55 56 59 58 59 57 56 49 45 47 53
Wind_Direction
176 173 181 179 165 210 161 148 146 132 126 111 94 80 73 66 63 56 53 48 45 38 31 24 15 12 9 3 359 358 356 354 347 345 345 342 339 337 335 335 333 330 329
186 194 185 169 178 190 156 151 145 143 117 95 81 72 61 55 48 40 38 30 26 22 21 13 7 0 358 355 353 351 350 351 351 350 347 344 340 337 331 328 327 324 323
200 208 188 167 179 164 157 155 142 115 102 85 64 57 52 44 38 27 25 19 11 10 11 3 356 348 350 347 344 344 343 344 343 341 340 339 338 337 334 329 327 324 323
225 214 196 179 168 157 147 131 111 95 73 53 40 34 30 23 20 14 4 360 360 358 354 347 344 343 342 339 339 338 338 338 337 334 333 333 333 332 331 330 327 325 322
221 198 186 169 150 142 138 124 108 88 58 41 21 14 5 5 5 359 357 353 348 342 341 340 334 334 336 336 336 337 336 337 336 334 332 331 329 324 324 322 324 323 318
202 186 165 147 146 142 129 125 107 45 17 5 352 347 349 358 354 350 347 340 341 338 338 335 334 337 336 334 333 334 334 335 332 331 328 327 329 324 321 320 319 318 317
179 160 151 154 153 150 154 163 191 301 328 327 334 346 345 342 340 339 339 338 336 332 333 335 335 336 334 333 331 331 329 329 328 328 326 325 323 321 320 317 315 316 314
163 157 161 165 172 180 188 210 268 290 323 329 332 328 329 327 330 342 336 333 334 338 341 338 335 333 330 327 328 328 326 325 323 323 319 318 317 316 315 313 311 312 308
162 168 175 181 191 200 217 247 279 312 321 316 317 320 329 323 333 336 332 332 336 335 334 335 335 332 330 329 326 326 324 323 322 320 317 313 311 310 310 311 312 311 303
178 188 198 207 217 223 244 266 294 315 313 317 311 316 323 320 323 329 326 327 326 331 336 334 331 329 328 327 326 322 320 319 319 316 318 306 306 302 302 305 306 310 305
212 213 216 229 244 267 279 292 304 314 314 306 304 313 316 317 323 313 312 315 320 324 329 330 329 326 324 323 323 321 319 319 317 311 308 299 295 297 299 299 302 302 304
219 220 228 248 259 275 287 291 295 306 301 299 307 315 316 312 311 309 306 307 310 315 321 324 326 324 324 324 323 321 318 315 310 302 301 296 293 293 294 295 298 301 299
228 227 241 242 261 282 283 288 288 296 297 299 305 308 306 311 307 304 299 306 309 313 314 317 318 322 323 320 320 317 316 313 313 310 305 299 291 289 291 293 292 296 294
243 246 247 245 270 299 299 293 287 289 292 294 297 300 307 309 308 305 304 310 312 309 306 305 314 317 320 318 317 317 317 320 318 313 304 296 290 289 285 287 289 292 293
244 256 265 269 273 290 292 283 277 280 292 288 293 300 307 312 311 311 310 310 308 304 303 303 306 313 316 316 315 314 314 316 315 307 302 297 292 287 283 282 287 288 291
258 264 270 267 274 286 291 279 269 276 284 290 296 299 305 310 311 316 314 310 311 309 304 307 311 311 313 314 311 311 313 310 306 304 297 292 292 289 286 282 280 285 287
267 266 270 270 277 282 284 280 274 280 290 293 293 298 302 302 309 309 310 310 312 310 308 308 306 307 314 315 312 310 312 311 307 301 295 293 290 286 288 288 286 279 282
268 269 272 280 277 277 274 278 276 283 288 291 293 296 297 299 302 307 313 311 309 307 310 306 308 311 313 313 311 313 314 309 307 300 293 289 286 281 286 282 276 277 274
266 269 268 273 266 267 267 267 276 285 288 290 293 295 298 301 307 310 311 311 312 312 312 311 309 309 310 310 310 312 311 308 304 298 295 291 287 282 282 277 274 273 274
265 265 266 267 266 269 267 270 280 287 291 292 295 297 298 300 305 309 309 309 310 307 306 305 306 306 307 307 306 310 308 311 310 307 300 291 286 284 281 277 280 274 270
266 265 255 258 267 268 272 281 286 294 294 296 298 298 297 300 305 306 306 306 305 302 301 302 304 305 306 309 310 308 310 317 320 316 309 300 295 288 286 280 278 277 271
266 266 263 264 270 277 284 286 289 292 297 298 299 299 297 298 299 299 301 304 303 298 299 299 303 306 307 308 307 307 313 318 313 309 306 304 299 296 287 282 280 272 267
265 271 278 281 274 276 281 286 289 291 297 295 295 297 294 294 296 298 297 298 298 294 295 302 304 306 307 306 307 310 312 313 310 305 303 301 300 297 292 284 279 272 266
281 285 283 283 283 280 276 284 290 295 296 293 293 291 289 292 294 294 296 297 294 295 300 302 302 302 304 306 308 307 307 305 301 299 299 300 300 300 295 291 285 274 263
274 276 282 284 287 294 291 287 290 294 295 295 297 295 295 293 294 294 296 291 293 297 299 301 301 302 303 304 306 307 305 303 305 307 306 305 304 303 301 287 280 268 261
273 275 276 277 281 288 288 291 294 294 293 294 295 294 293 296 295 297 291 294 297 298 298 300 300 303 302 304 308 307 305 306 307 308 309 309 305 302 300 294 278 269 262